📊 Raw Sensor Data

Showing records 42576 to 42600 of 85,002 total

ID Distance (ft) Battery V Battery A Int Temp (°F) Int Humid (%) Ext Temp (°F) Solar V RSSI SNR Time Stamp
42439 15.0 4.13 5 65 43 68 5.10 -76 7 06/03/2025 08:45 AM
42438 14.9 4.01 0 63 43 66 5.10 -75 8 06/03/2025 08:15 AM
42437 15.0 4.13 5 62 43 65 5.10 -77 7 06/03/2025 08:00 AM
42436 15.0 4.14 56 61 43 62 4.50 -72 6 06/03/2025 07:45 AM
42435 15.0 4.07 44 60 42 63 4.50 -76 8 12/31/1969 04:07 PM
42434 15.0 4.01 5 59 42 61 4.50 -75 8 06/03/2025 07:15 AM
42433 14.9 4.03 0 58 42 60 4.50 -74 8 06/03/2025 07:00 AM
42432 14.9 4.01 7 57 42 60 4.50 -72 8 06/03/2025 06:45 AM
42431 14.9 4.00 0 56 42 58 4.50 -76 8 06/03/2025 06:30 AM
42430 14.8 3.94 0 55 42 57 4.50 -76 7 06/03/2025 06:15 AM
42429 14.8 3.93 -8 54 42 55 4.50 -77 8 06/03/2025 06:00 AM
42428 14.8 3.92 -10 54 43 55 3.20 -76 8 06/03/2025 05:45 AM
42427 14.8 3.99 -5 54 43 55 1.30 -77 8 06/03/2025 05:30 AM
42426 14.8 3.93 -5 54 43 55 0.00 -77 7 06/03/2025 05:15 AM
42425 14.5 3.93 -5 54 43 55 0.10 -77 8 06/03/2025 05:00 AM
42424 14.5 3.99 -5 54 43 55 0.00 -75 8 06/03/2025 04:45 AM
42423 14.5 3.94 -5 54 43 55 0.00 -76 8 06/03/2025 04:30 AM
42422 14.5 3.94 -5 54 43 55 0.00 -76 8 06/03/2025 04:15 AM
42421 14.5 3.99 -5 55 43 56 0.00 -76 9 06/03/2025 04:00 AM
42420 14.5 3.94 -5 55 43 56 0.00 -76 8 06/03/2025 03:45 AM
42419 14.4 3.94 -5 55 43 56 0.10 -77 8 06/03/2025 03:30 AM
42418 14.5 3.94 -5 55 43 56 0.10 -76 8 06/03/2025 03:15 AM
42417 14.4 4.00 -5 56 43 57 0.00 -77 8 06/03/2025 03:00 AM
42416 14.4 3.94 -5 56 43 57 0.00 -76 8 06/03/2025 02:45 AM
42415 14.4 4.00 -5 56 43 57 0.00 -74 8 06/03/2025 02:30 AM